Flag for U.S.A. Weather past 2 weeks in Irving, Texas, U.S.A.

Now
89 °F

Passing clouds.


Feels Like: 94 °F
Forecast: 78 / 95 °F
Wind: 14 mph from Southwest

Location: Dallas / Fort Worth International Airport

Current Time: Jun 30, 2015 at 12:15:41 PM

Latest Report: Jun 30, 2015 at 11:53 AM


Visibility: 10 mi

Pressure: 29.99 "Hg

Humidity: 53%

Dew point: 70 °F

Location of IrvingLocation

Historic Weather in Irving — Graph

°F

Irving temperature yesterday

Maximum temperature yesterday: 95 °F (at 3:53 PM)
Minimum temperature yesterday: 76 °F (at 2:53 AM)
Average temperature yesterday: 85 °F

Past Weeks' High & Low Weather Summary

 TemperatureHumidityPressure
High95 °F (Jun 18, 3:53 PM)94% (Jun 17, 6:01 AM)30.14 "Hg (Jun 17, 6:01 AM)
Low72 °F (Jun 30, 3:53 AM)29% (Jun 28, 6:53 PM)29.60 "Hg (Jun 17, 3:53 PM)
Average83 °F66%29.96 "Hg
* Reported Jun 15 10:53 AM — Jun 30 10:53 AM, Irving, Weather by CustomWeather, © 2015

Note: Actual official high and low records may vary slightly from our data, if they occured in-between our weather recording intervals... More about our weather records

Advertising

Irving weather history for previous 24 hours

 ConditionsComfort  
Time TempWeatherWind HumidityBarometerVisibility
10:53 AM
Tue, Jun 30
86 °FPassing clouds.15 mph59%30.00 "Hg10 mi
9:53 AM83 °FPartly sunny.15 mph61%30.00 "Hg10 mi
8:53 AM82 °FPartly sunny.14 mph65%30.02 "Hg10 mi
7:53 AM77 °FPartly sunny.10 mph71%29.98 "Hg10 mi
6:53 AM74 °FPassing clouds.10 mph74%29.98 "Hg10 mi
5:53 AM73 °FPassing clouds.12 mph79%29.97 "Hg10 mi
4:53 AM72 °FPartly cloudy.9 mph81%29.96 "Hg10 mi
3:53 AM72 °FLight rain. Overcast.No wind76%29.98 "Hg6 mi
2:53 AM79 °FPartly cloudy.22 mph60%29.99 "Hg10 mi
1:53 AM79 °FPartly cloudy.7 mph58%29.96 "Hg10 mi
12:53 AM79 °FPassing clouds.6 mph60%29.96 "Hg10 mi
11:53 PM
Mon, Jun 29
82 °FPassing clouds.8 mph55%29.92 "Hg10 mi
10:53 PM85 °FPassing clouds.12 mph57%29.93 "Hg10 mi
9:53 PM87 °FPassing clouds.10 mph59%29.91 "Hg10 mi
8:53 PM89 °FScattered clouds.13 mph55%29.88 "Hg10 mi
7:53 PM91 °FPartly sunny.8 mph47%29.87 "Hg10 mi
6:53 PM94 °FScattered clouds.6 mph38%29.85 "Hg10 mi
5:53 PM94 °FScattered clouds.5 mph40%29.88 "Hg10 mi
4:53 PM94 °FPartly sunny.5 mph38%29.89 "Hg10 mi
3:53 PM95 °FBroken clouds.6 mph37%29.90 "Hg10 mi
2:53 PM94 °FBroken clouds.7 mph41%29.92 "Hg10 mi
1:53 PM92 °FBroken clouds.6 mph51%29.93 "Hg10 mi
12:53 PM90 °FBroken clouds.5 mph56%29.94 "Hg10 mi
Weather by CustomWeather, © 2015

See weather overviewHow to use our weather pages